Sign in

Goboko Update

Goboko is set to continue

The Goboko booking system is to continue under a new operator, a member of one of our longest-subscribed flying clubs

The new and previous operators of the site are working to ensure there will be no interruption to your booking service as the transition takes place. Of course, aircraft booking will continue to be free

Thank you for your continued commitment to Goboko

Info

Aviation weather

METAR KDAB 230553Z 12003KT 10SM FEW028 26/23 A3001 RMK AO2 SLP162 T02610228 10272 20256 58008

TAF KDAB 230541Z 2306/2406 VRB03KT P6SM FEW025 FM231400 09008KT P6SM VCSH SCT030 SCT250 FM231800 09010KT P6SM SCT035 SCT250 FM240000 07006KT P6SM SCT030

Aviation weather from ADDS. Re-check weather before flight.

-